Time,TemperatureF,DewpointF,PressureIn,WindDirection,WindDirectionDegrees,WindSpeedMPH,WindSpeedGustMPH,Humidity,HourlyPrecipIn,Conditions,Clouds,dailyrainin,SoftwareType,DateUTC
2013-08-19 00:00:00,58.2,57.0,30.05,WNW,286,0.0,0.0,95,0.00,,,0.00,weatherlink.com 1.10,2013-08-19 04:00:00,
2013-08-19 00:15:00,58.0,57.0,30.05,WNW,286,0.0,0.0,95,0.00,,,0.00,weatherlink.com 1.10,2013-08-19 04:15:00,
2013-08-19 00:30:00,57.8,56.0,30.05,WNW,286,0.0,1.0,95,0.00,,,0.00,weatherlink.com 1.10,2013-08-19 04:30:00,
2013-08-19 00:45:00,57.7,56.0,30.05,WNW,286,0.0,0.0,95,0.00,,,0.00,weatherlink.com 1.10,2013-08-19 04:45:00,
2013-08-19 01:00:00,57.4,56.0,30.05,WNW,286,0.0,0.0,96,0.00,,,0.00,weatherlink.com 1.10,2013-08-19 05:00:00,
2013-08-19 01:15:00,57.3,56.0,30.05,WNW,286,0.0,0.0,96,0.00,,,0.00,weatherlink.com 1.10,2013-08-19 05:15:00,
2013-08-19 01:30:00,57.0,56.0,30.05,WNW,286,0.0,0.0,96,0.00,,,0.00,weatherlink.com 1.10,2013-08-19 05:30:00,
2013-08-19 01:46:00,56.8,56.0,30.04,WNW,286,0.0,0.0,96,0.00,,,0.00,weatherlink.com 1.10,2013-08-19 05:46:00,
2013-08-19 02:01:00,56.9,56.0,30.04,WNW,286,0.0,0.0,97,0.00,,,0.00,weatherlink.com 1.10,2013-08-19 06:01:00,
2013-08-19 02:16:00,57.2,56.0,30.03,WNW,286,0.0,0.0,97,0.00,,,0.00,weatherlink.com 1.10,2013-08-19 06:16:00,
2013-08-19 02:31:00,57.4,57.0,30.03,WNW,286,0.0,0.0,97,0.00,,,0.00,weatherlink.com 1.10,2013-08-19 06:31:00,
2013-08-19 02:46:00,57.5,57.0,30.03,WNW,286,0.0,0.0,97,0.00,,,0.00,weatherlink.com 1.10,2013-08-19 06:46:00,
2013-08-19 03:01:00,57.2,56.0,30.03,WNW,286,0.0,0.0,96,0.00,,,0.00,weatherlink.com 1.10,2013-08-19 07:01:00,
2013-08-19 03:16:00,56.3,55.0,30.03,WNW,286,0.0,1.0,96,0.00,,,0.00,weatherlink.com 1.10,2013-08-19 07:16:00,
2013-08-19 03:31:00,55.9,55.0,30.03,WNW,286,0.0,0.0,96,0.00,,,0.00,weatherlink.com 1.10,2013-08-19 07:31:00,
2013-08-19 03:46:00,55.6,55.0,30.03,WNW,286,0.0,0.0,96,0.00,,,0.00,weatherlink.com 1.10,2013-08-19 07:46:00,
2013-08-19 04:01:00,55.2,54.0,30.02,WNW,286,0.0,0.0,96,0.00,,,0.00,weatherlink.com 1.10,2013-08-19 08:01:00,
2013-08-19 04:16:00,55.4,55.0,30.02,WNW,286,0.0,0.0,97,0.00,,,0.00,weatherlink.com 1.10,2013-08-19 08:16:00,
2013-08-19 04:31:00,54.9,54.0,30.02,WNW,286,0.0,0.0,97,0.00,,,0.00,weatherlink.com 1.10,2013-08-19 08:31:00,
2013-08-19 04:46:00,54.1,53.0,30.02,WNW,286,0.0,0.0,96,0.00,,,0.00,weatherlink.com 1.10,2013-08-19 08:46:00,
2013-08-19 05:01:00,54.1,53.0,30.01,WNW,286,0.0,0.0,97,0.00,,,0.00,weatherlink.com 1.10,2013-08-19 09:01:00,
2013-08-19 05:16:00,53.7,53.0,30.02,WNW,286,0.0,0.0,97,0.00,,,0.00,weatherlink.com 1.10,2013-08-19 09:16:00,
2013-08-19 05:31:00,53.8,53.0,30.02,WNW,286,0.0,0.0,97,0.00,,,0.00,weatherlink.com 1.10,2013-08-19 09:31:00,
2013-08-19 05:46:00,54.0,53.0,30.02,WNW,286,0.0,0.0,97,0.00,,,0.00,weatherlink.com 1.10,2013-08-19 09:46:00,
2013-08-19 06:01:00,53.7,53.0,30.02,WNW,286,0.0,0.0,97,0.00,,,0.00,weatherlink.com 1.10,2013-08-19 10:01:00,
2013-08-19 06:16:00,53.1,52.0,30.01,WNW,286,0.0,0.0,97,0.00,,,0.00,weatherlink.com 1.10,2013-08-19 10:16:00,
2013-08-19 06:31:00,53.2,52.0,30.02,WNW,286,0.0,0.0,97,0.00,,,0.00,weatherlink.com 1.10,2013-08-19 10:31:00,
2013-08-19 06:46:00,53.6,53.0,30.02,WNW,286,0.0,0.0,98,0.00,,,0.00,weatherlink.com 1.10,2013-08-19 10:46:00,
2013-08-19 07:02:00,54.6,54.0,30.02,WNW,286,0.0,0.0,98,0.00,,,0.00,weatherlink.com 1.10,2013-08-19 11:02:00,
2013-08-19 07:16:00,55.7,55.0,30.02,WNW,286,0.0,0.0,98,0.00,,,0.00,weatherlink.com 1.10,2013-08-19 11:16:00,
2013-08-19 07:31:00,56.5,56.0,30.02,WNW,286,0.0,1.0,98,0.00,,,0.00,weatherlink.com 1.10,2013-08-19 11:31:00,
2013-08-19 07:46:00,57.5,57.0,30.02,WNW,286,0.0,1.0,98,0.00,,,0.00,weatherlink.com 1.10,2013-08-19 11:46:00,
2013-08-19 08:01:00,58.4,58.0,30.01,WNW,286,0.0,0.0,97,0.00,,,0.00,weatherlink.com 1.10,2013-08-19 12:01:00,
2013-08-19 08:16:00,59.6,59.0,30.01,WNW,286,0.0,1.0,96,0.00,,,0.00,weatherlink.com 1.10,2013-08-19 12:16:00,
2013-08-19 08:31:00,60.9,59.0,30.01,WNW,286,0.0,1.0,92,0.00,,,0.00,weatherlink.com 1.10,2013-08-19 12:31:00,
2013-08-19 08:46:00,61.7,59.0,30.00,WNW,288,0.0,2.0,91,0.00,,,0.00,weatherlink.com 1.10,2013-08-19 12:46:00,
2013-08-19 09:01:00,63.1,60.0,30.00,WNW,288,0.0,1.0,90,0.00,,,0.00,weatherlink.com 1.10,2013-08-19 13:01:00,
2013-08-19 09:16:00,65.2,62.0,29.99,WNW,288,0.0,1.0,88,0.00,,,0.00,weatherlink.com 1.10,2013-08-19 13:16:00,
2013-08-19 09:31:00,67.7,62.0,29.99,NW,325,0.0,1.0,83,0.00,,,0.00,weatherlink.com 1.10,2013-08-19 13:31:00,
2013-08-19 09:46:00,69.3,62.0,30.00,NW,325,1.0,1.0,78,0.00,,,0.00,weatherlink.com 1.10,2013-08-19 13:46:00,
2013-08-19 10:02:00,70.2,62.0,29.99,NW,325,0.0,1.0,75,0.00,,,0.00,weatherlink.com 1.10,2013-08-19 14:02:00,
2013-08-19 10:17:00,71.2,61.0,29.99,WNW,298,0.0,1.0,70,0.00,,,0.00,weatherlink.com 1.10,2013-08-19 14:17:00,
2013-08-19 10:32:00,71.9,60.0,29.99,WNW,293,0.0,4.0,66,0.00,,,0.00,weatherlink.com 1.10,2013-08-19 14:32:00,
2013-08-19 10:47:00,73.1,61.0,29.98,West,259,0.0,4.0,66,0.00,,,0.00,weatherlink.com 1.10,2013-08-19 14:47:00,
2013-08-19 11:02:00,74.1,61.0,29.98,SW,226,1.0,5.0,64,0.00,,,0.00,weatherlink.com 1.10,2013-08-19 15:02:00,
2013-08-19 11:17:00,75.4,61.0,29.97,WSW,242,0.0,9.0,61,0.00,,,0.00,weatherlink.com 1.10,2013-08-19 15:17:00,
2013-08-19 11:32:00,76.5,61.0,29.97,NNW,330,0.0,7.0,59,0.00,,,0.00,weatherlink.com 1.10,2013-08-19 15:32:00,
2013-08-19 11:47:00,77.1,61.0,29.96,West,269,0.0,11.0,58,0.00,,,0.00,weatherlink.com 1.10,2013-08-19 15:47:00,
2013-08-19 12:02:00,77.9,60.0,29.96,NW,321,3.0,8.0,54,0.00,,,0.00,weatherlink.com 1.10,2013-08-19 16:02:00,
2013-08-19 12:17:00,78.2,60.0,29.96,West,274,3.0,6.0,54,0.00,,,0.00,weatherlink.com 1.10,2013-08-19 16:17:00,
2013-08-19 12:32:00,78.2,60.0,29.96,WNW,285,2.0,7.0,53,0.00,,,0.00,weatherlink.com 1.10,2013-08-19 16:32:00,
2013-08-19 12:47:00,78.2,60.0,29.95,SW,235,2.0,9.0,53,0.00,,,0.00,weatherlink.com 1.10,2013-08-19 16:47:00,
2013-08-19 13:02:00,78.7,60.0,29.95,NW,311,3.0,9.0,53,0.00,,,0.00,weatherlink.com 1.10,2013-08-19 17:02:00,
2013-08-19 13:17:00,79.2,61.0,29.94,WNW,302,4.0,10.0,53,0.00,,,0.00,weatherlink.com 1.10,2013-08-19 17:17:00,
2013-08-19 13:32:00,79.6,60.0,29.95,West,278,7.0,10.0,52,0.00,,,0.00,weatherlink.com 1.10,2013-08-19 17:32:00,
2013-08-19 13:47:00,80.2,60.0,29.94,West,261,5.0,12.0,50,0.00,,,0.00,weatherlink.com 1.10,2013-08-19 17:47:00,
2013-08-19 14:02:00,80.6,61.0,29.93,WNW,290,0.0,10.0,51,0.00,,,0.00,weatherlink.com 1.10,2013-08-19 18:02:00,
2013-08-19 14:19:00,81.2,61.0,29.93,WNW,290,6.0,8.0,51,0.00,,,0.00,weatherlink.com 1.10,2013-08-19 18:19:00,
2013-08-19 14:32:00,81.4,61.0,29.92,West,269,8.0,10.0,50,0.00,,,0.00,weatherlink.com 1.10,2013-08-19 18:32:00,
2013-08-19 14:47:00,81.7,62.0,29.91,West,281,2.0,8.0,51,0.00,,,0.00,weatherlink.com 1.10,2013-08-19 18:47:00,
2013-08-19 15:02:00,82.0,59.0,29.91,WSW,237,4.0,11.0,46,0.00,,,0.00,weatherlink.com 1.10,2013-08-19 19:02:00,
2013-08-19 15:17:00,81.7,58.0,29.91,WNW,290,5.0,13.0,45,0.00,,,0.00,weatherlink.com 1.10,2013-08-19 19:17:00,
2013-08-19 15:33:00,81.6,59.0,29.91,West,277,2.0,8.0,47,0.00,,,0.00,weatherlink.com 1.10,2013-08-19 19:33:00,
2013-08-19 15:48:00,81.4,58.0,29.91,SW,217,6.0,11.0,45,0.00,,,0.00,weatherlink.com 1.10,2013-08-19 19:48:00,
2013-08-19 16:03:00,81.8,58.0,29.91,West,265,1.0,10.0,45,0.00,,,0.00,weatherlink.com 1.10,2013-08-19 20:03:00,
2013-08-19 16:18:00,82.5,59.0,29.91,West,279,1.0,9.0,45,0.00,,,0.00,weatherlink.com 1.10,2013-08-19 20:18:00,
2013-08-19 16:33:00,82.2,59.0,29.90,West,275,1.0,10.0,46,0.00,,,0.00,weatherlink.com 1.10,2013-08-19 20:33:00,
2013-08-19 16:48:00,82.1,59.0,29.89,WNW,284,2.0,12.0,45,0.00,,,0.00,weatherlink.com 1.10,2013-08-19 20:48:00,
2013-08-19 17:03:00,82.5,61.0,29.89,West,281,2.0,8.0,48,0.00,,,0.00,weatherlink.com 1.10,2013-08-19 21:03:00,
2013-08-19 17:18:00,82.1,61.0,29.90,WNW,294,0.0,6.0,49,0.00,,,0.00,weatherlink.com 1.10,2013-08-19 21:18:00,
2013-08-19 17:33:00,82.7,62.0,29.90,NW,304,1.0,3.0,50,0.00,,,0.00,weatherlink.com 1.10,2013-08-19 21:33:00,
2013-08-19 17:48:00,81.5,62.0,29.90,WNW,288,0.0,5.0,51,0.00,,,0.00,weatherlink.com 1.10,2013-08-19 21:48:00,
2013-08-19 18:03:00,80.9,62.0,29.91,West,271,6.0,6.0,52,0.00,,,0.00,weatherlink.com 1.10,2013-08-19 22:03:00,
2013-08-19 18:18:00,79.9,61.0,29.92,West,278,0.0,9.0,53,0.00,,,0.00,weatherlink.com 1.10,2013-08-19 22:18:00,
2013-08-19 18:33:00,79.2,61.0,29.92,WNW,290,0.0,8.0,54,0.00,,,0.00,weatherlink.com 1.10,2013-08-19 22:33:00,
2013-08-19 18:48:00,78.2,62.0,29.92,WNW,294,0.0,2.0,57,0.00,,,0.00,weatherlink.com 1.10,2013-08-19 22:48:00,
2013-08-19 19:03:00,77.1,63.0,29.93,WNW,294,0.0,1.0,61,0.00,,,0.00,weatherlink.com 1.10,2013-08-19 23:03:00,
2013-08-19 19:18:00,75.4,63.0,29.93,WNW,294,0.0,1.0,65,0.00,,,0.00,weatherlink.com 1.10,2013-08-19 23:18:00,
2013-08-19 19:33:00,73.5,63.0,29.93,WNW,294,0.0,0.0,69,0.00,,,0.00,weatherlink.com 1.10,2013-08-19 23:33:00,
2013-08-19 19:48:00,71.6,64.0,29.94,WNW,294,0.0,0.0,77,0.00,,,0.00,weatherlink.com 1.10,2013-08-19 23:48:00,
2013-08-19 20:03:00,70.1,64.0,29.94,WNW,294,0.0,1.0,80,0.00,,,0.00,weatherlink.com 1.10,2013-08-20 00:03:00,
2013-08-19 20:18:00,68.7,63.0,29.94,WNW,294,0.0,0.0,82,0.00,,,0.00,weatherlink.com 1.10,2013-08-20 00:18:00,
2013-08-19 20:33:00,67.6,63.0,29.95,WNW,294,0.0,0.0,84,0.00,,,0.00,weatherlink.com 1.10,2013-08-20 00:33:00,
2013-08-19 20:48:00,66.6,62.0,29.95,WNW,294,0.0,0.0,86,0.00,,,0.00,weatherlink.com 1.10,2013-08-20 00:48:00,
2013-08-19 21:03:00,65.8,62.0,29.96,WNW,294,0.0,1.0,87,0.00,,,0.00,weatherlink.com 1.10,2013-08-20 01:03:00,
2013-08-19 21:18:00,64.8,61.0,29.96,WNW,294,0.0,0.0,88,0.00,,,0.00,weatherlink.com 1.10,2013-08-20 01:18:00,
2013-08-19 21:35:00,64.0,61.0,29.96,WNW,294,0.0,0.0,90,0.00,,,0.00,weatherlink.com 1.10,2013-08-20 01:35:00,
2013-08-19 21:48:00,63.5,61.0,29.96,WNW,294,0.0,0.0,90,0.00,,,0.00,weatherlink.com 1.10,2013-08-20 01:48:00,
2013-08-19 22:03:00,63.0,60.0,29.96,WNW,294,0.0,0.0,91,0.00,,,0.00,weatherlink.com 1.10,2013-08-20 02:03:00,
2013-08-19 22:18:00,62.3,60.0,29.96,WNW,294,0.0,0.0,92,0.00,,,0.00,weatherlink.com 1.10,2013-08-20 02:18:00,
2013-08-19 22:33:00,62.0,60.0,29.96,WNW,294,0.0,0.0,92,0.00,,,0.00,weatherlink.com 1.10,2013-08-20 02:33:00,
2013-08-19 22:48:00,61.7,60.0,29.96,WNW,294,0.0,0.0,93,0.00,,,0.00,weatherlink.com 1.10,2013-08-20 02:48:00,
2013-08-19 23:03:00,61.5,60.0,29.96,WNW,294,0.0,0.0,93,0.00,,,0.00,weatherlink.com 1.10,2013-08-20 03:03:00,
2013-08-19 23:18:00,61.1,59.0,29.96,WNW,294,0.0,0.0,93,0.00,,,0.00,weatherlink.com 1.10,2013-08-20 03:18:00,
2013-08-19 23:33:00,60.9,59.0,29.96,WNW,294,0.0,0.0,94,0.00,,,0.00,weatherlink.com 1.10,2013-08-20 03:33:00,
2013-08-19 23:48:00,60.5,59.0,29.96,WNW,294,0.0,0.0,94,0.00,,,0.00,weatherlink.com 1.10,2013-08-20 03:48:00,